TimeCDT,TemperatureF,Dew PointF,Humidity,Sea Level PressureIn,VisibilityMPH,Wind Direction,Wind SpeedMPH,Gust SpeedMPH,PrecipitationIn,Events,Conditions,WindDirDegrees,DateUTC
12:15 AM,81.3,72.7,75,29.88,10.0,ESE,9.2,-,N/A,,Scattered Clouds,110,2013-09-09 05:15:00
12:35 AM,81.5,72.9,75,29.88,10.0,East,10.4,-,N/A,,Scattered Clouds,100,2013-09-09 05:35:00
12:55 AM,81.5,72.5,74,29.88,10.0,East,10.4,-,N/A,,Scattered Clouds,100,2013-09-09 05:55:00
1:15 AM,81.7,72.5,74,29.88,10.0,East,10.4,-,N/A,,Mostly Cloudy,100,2013-09-09 06:15:00
1:35 AM,81.5,72.7,74,29.88,10.0,East,9.2,-,N/A,,Mostly Cloudy,100,2013-09-09 06:35:00
1:55 AM,81.5,72.1,73,29.87,10.0,East,11.5,-,N/A,,Scattered Clouds,90,2013-09-09 06:55:00
2:15 AM,81.7,72.9,74,29.88,10.0,ESE,9.2,-,N/A,,Mostly Cloudy,110,2013-09-09 07:15:00
2:35 AM,81.5,74.5,79,29.88,10.0,SE,12.7,18.4,N/A,,Overcast,140,2013-09-09 07:35:00
2:55 AM,80.1,73.9,81,29.87,10.0,ESE,8.1,-,N/A,,Mostly Cloudy,120,2013-09-09 07:55:00
3:15 AM,81.7,73.4,76,29.87,10.0,ESE,13.8,18.4,N/A,,Scattered Clouds,110,2013-09-09 08:15:00
3:35 AM,81.9,73.2,75,29.88,10.0,ESE,12.7,20.7,N/A,,Mostly Cloudy,120,2013-09-09 08:35:00
3:55 AM,82.0,72.7,73,29.87,10.0,ESE,12.7,20.7,N/A,,Scattered Clouds,110,2013-09-09 08:55:00
4:15 AM,81.5,72.9,75,29.87,10.0,ESE,17.3,21.9,N/A,,Scattered Clouds,110,2013-09-09 09:15:00
4:35 AM,81.7,72.9,74,29.87,10.0,ESE,13.8,18.4,N/A,,Scattered Clouds,120,2013-09-09 09:35:00
4:55 AM,81.7,72.1,73,29.87,10.0,ESE,17.3,21.9,N/A,,Scattered Clouds,120,2013-09-09 09:55:00
5:15 AM,81.9,71.8,71,29.87,10.0,ESE,16.1,23.0,N/A,,Scattered Clouds,120,2013-09-09 10:15:00
5:35 AM,81.9,71.6,71,29.87,10.0,ESE,15.0,21.9,N/A,,Clear,120,2013-09-09 10:35:00
5:55 AM,81.9,72.0,72,29.88,10.0,ESE,17.3,23.0,N/A,,Scattered Clouds,110,2013-09-09 10:55:00
6:15 AM,81.9,71.6,71,29.88,10.0,ESE,13.8,21.9,N/A,,Scattered Clouds,110,2013-09-09 11:15:00
6:35 AM,81.9,71.6,71,29.88,10.0,ESE,13.8,20.7,N/A,,Scattered Clouds,120,2013-09-09 11:35:00
6:55 AM,81.9,71.6,71,29.88,10.0,ESE,13.8,21.9,N/A,,Scattered Clouds,120,2013-09-09 11:55:00
7:15 AM,81.9,72.1,72,29.88,10.0,ESE,13.8,19.6,N/A,,Scattered Clouds,110,2013-09-09 12:15:00
7:35 AM,81.9,72.1,72,29.89,10.0,ESE,12.7,20.7,N/A,,Mostly Cloudy,120,2013-09-09 12:35:00
7:55 AM,76.8,71.1,82,29.90,2.0,ESE,15.0,35.7,0.08,Rain,Rain,110,2013-09-09 12:55:00
8:15 AM,78.8,72.5,81,29.91,10.0,ESE,13.8,21.9,N/A,,Scattered Clouds,110,2013-09-09 13:15:00
8:35 AM,78.6,72.9,82,29.92,5.0,SE,15.0,23.0,0.02,Rain,Rain,140,2013-09-09 13:35:00
8:55 AM,77.9,73.9,88,29.92,10.0,East,10.4,-,0.02,,Overcast,100,2013-09-09 13:55:00
9:15 AM,78.8,74.3,86,29.92,10.0,ESE,8.1,-,N/A,,Mostly Cloudy,120,2013-09-09 14:15:00
9:35 AM,80.1,73.8,81,29.93,10.0,SE,12.7,23.0,N/A,Thunderstorm,Thunderstorm,130,2013-09-09 14:35:00
9:55 AM,80.1,72.5,78,29.93,10.0,SE,10.4,17.3,N/A,,Mostly Cloudy,130,2013-09-09 14:55:00
10:15 AM,82.6,73.8,75,29.94,10.0,SE,11.5,-,N/A,,Overcast,140,2013-09-09 15:15:00
10:35 AM,84.2,74.7,73,29.94,10.0,SE,10.4,-,N/A,Thunderstorm,Thunderstorm,140,2013-09-09 15:35:00
10:55 AM,79.9,74.7,84,29.95,10.0,East,13.8,19.6,N/A,Thunderstorm,Thunderstorm,100,2013-09-09 15:55:00
11:15 AM,82.2,73.0,74,29.95,10.0,East,11.5,16.1,N/A,,Scattered Clouds,100,2013-09-09 16:15:00
11:35 AM,84.0,74.3,72,29.94,10.0,ESE,11.5,17.3,N/A,,Scattered Clouds,120,2013-09-09 16:35:00
11:55 AM,85.1,73.4,68,29.93,10.0,ESE,12.7,-,N/A,,Scattered Clouds,120,2013-09-09 16:55:00
12:15 PM,86.0,72.3,64,29.93,10.0,ESE,13.8,-,N/A,Thunderstorm,Scattered Clouds,120,2013-09-09 17:15:00
12:35 PM,86.9,73.0,63,29.93,10.0,SE,11.5,-,N/A,,Clear,130,2013-09-09 17:35:00
12:55 PM,86.0,73.6,66,29.94,10.0,ESE,15.0,20.7,N/A,,Scattered Clouds,110,2013-09-09 17:55:00
1:15 PM,86.2,74.7,68,29.93,10.0,East,15.0,21.9,N/A,,Scattered Clouds,100,2013-09-09 18:15:00
1:35 PM,80.1,74.3,82,29.92,5.0,East,9.2,25.3,0.01,Rain,Rain,90,2013-09-09 18:35:00
1:55 PM,83.3,76.5,80,29.92,10.0,East,13.8,-,0.01,,Mostly Cloudy,90,2013-09-09 18:55:00
2:15 PM,84.7,74.7,72,29.92,10.0,ESE,16.1,-,N/A,,Mostly Cloudy,120,2013-09-09 19:15:00
2:35 PM,85.8,74.8,70,29.91,10.0,ESE,15.0,20.7,N/A,,Scattered Clouds,110,2013-09-09 19:35:00
2:55 PM,85.8,73.6,67,29.90,10.0,ESE,16.1,20.7,N/A,,Scattered Clouds,110,2013-09-09 19:55:00
3:15 PM,85.5,74.5,70,29.90,10.0,ESE,17.3,23.0,N/A,Thunderstorm,Scattered Clouds,110,2013-09-09 20:15:00
3:35 PM,80.8,74.1,80,29.90,10.0,SE,15.0,21.9,N/A,Thunderstorm,Overcast,140,2013-09-09 20:35:00
3:55 PM,82.4,74.5,77,29.90,10.0,SE,11.5,16.1,N/A,,Overcast,130,2013-09-09 20:55:00
4:15 PM,83.8,74.8,74,29.91,10.0,ESE,16.1,27.6,N/A,,Overcast,120,2013-09-09 21:15:00
4:35 PM,78.3,74.3,88,29.89,5.0,ESE,12.7,20.7,0.01,Rain,Light Rain,120,2013-09-09 21:35:00
4:55 PM,79.2,75.6,89,29.90,10.0,ESE,12.7,20.7,0.01,,Overcast,120,2013-09-09 21:55:00
5:15 PM,80.6,74.8,83,29.90,10.0,ESE,15.0,20.7,N/A,,Mostly Cloudy,120,2013-09-09 22:15:00
5:35 PM,80.6,74.3,81,29.91,10.0,ESE,15.0,19.6,N/A,,Scattered Clouds,110,2013-09-09 22:35:00
5:55 PM,80.6,73.2,78,29.91,10.0,ESE,12.7,21.9,N/A,,Clear,120,2013-09-09 22:55:00
6:15 PM,80.6,74.3,81,29.90,10.0,ESE,16.1,21.9,N/A,,Mostly Cloudy,120,2013-09-09 23:15:00
6:35 PM,81.0,73.2,77,29.90,10.0,SE,11.5,18.4,N/A,,Mostly Cloudy,130,2013-09-09 23:35:00
6:55 PM,80.6,74.3,81,29.90,10.0,East,12.7,19.6,N/A,,Scattered Clouds,100,2013-09-09 23:55:00
7:15 PM,80.6,73.0,78,29.90,10.0,ESE,12.7,19.6,N/A,,Scattered Clouds,120,2013-09-10 00:15:00
7:35 PM,80.6,72.9,77,29.90,10.0,ESE,15.0,19.6,N/A,,Clear,110,2013-09-10 00:35:00
7:55 PM,80.8,73.9,80,29.90,10.0,East,13.8,19.6,N/A,,Scattered Clouds,100,2013-09-10 00:55:00
8:15 PM,80.6,74.3,81,29.91,10.0,East,20.7,27.6,N/A,,Mostly Cloudy,100,2013-09-10 01:15:00
8:35 PM,78.1,73.4,85,29.92,10.0,East,19.6,27.6,N/A,,Overcast,100,2013-09-10 01:35:00
8:55 PM,78.3,75.2,90,29.92,5.0,ESE,12.7,19.6,0.02,Rain,Light Rain,110,2013-09-10 01:55:00
9:15 PM,79.3,75.2,87,29.92,10.0,SSE,12.7,16.1,N/A,,Overcast,150,2013-09-10 02:15:00
9:35 PM,79.2,75.2,88,29.92,10.0,SSE,10.4,-,N/A,,Overcast,150,2013-09-10 02:35:00
9:55 PM,79.5,75.6,88,29.92,10.0,SSE,11.5,-,N/A,,Overcast,150,2013-09-10 02:55:00
10:15 PM,80.4,74.1,81,29.93,10.0,SE,11.5,17.3,N/A,,Overcast,140,2013-09-10 03:15:00
10:35 PM,79.5,74.3,84,29.93,10.0,ESE,9.2,20.7,N/A,,Overcast,120,2013-09-10 03:35:00
10:55 PM,81.3,73.8,78,29.93,10.0,SE,13.8,19.6,N/A,,Overcast,130,2013-09-10 03:55:00
11:15 PM,81.0,73.9,79,29.93,10.0,SE,11.5,-,N/A,,Overcast,130,2013-09-10 04:15:00
11:35 PM,81.0,73.4,78,29.93,10.0,SE,10.4,16.1,N/A,,Mostly Cloudy,130,2013-09-10 04:35:00
11:55 PM,81.1,73.4,77,29.93,10.0,SE,10.4,18.4,N/A,,Scattered Clouds,130,2013-09-10 04:55:00